Madison, WI

6:45 AM CDT on April 27, 2017 (GMT -0500)
Dane County Regional-Truax

Weather History for KMSN - January, 2012

Change the Weather History Date:

Tuesday, January 24, 2012

  Actual Average Record
Temperature  
Mean Temperature 25 °F 19 °F  
Max Temperature 32 °F 27 °F 55 °F (1981)
Min Temperature 18 °F 11 °F -24 °F (1936)
Degree Days  
Heating Degree Days 40 46  
Month to date heating degree days 971 1113  
Since 1 July heating degree days 3375 3992  
Cooling Degree Days 0 0  
Month to date cooling degree days 0 0  
Year to date cooling degree days 0 0  
Moisture  
Dew Point 19 °F    
Average Humidity 77    
Maximum Humidity 91    
Minimum Humidity 63    
Precipitation  
Precipitation 0.00 in 0.04 in 1.42 in (1938)
Month to date precipitation 1.33 0.95  
Year to date precipitation 1.33 0.95  
Snow  
Snow 0.00 in 0.40 in 6.00 in (1938)
Month to date snowfall 12.1 10.0  
Since 1 July snowfall 16.2 27.6  
Snow Depth 5.00 in    
Sea Level Pressure  
Sea Level Pressure 30.18 in    
Wind  
Wind Speed 5 mph (WNW)    
Max Wind Speed 15 mph    
Max Gust Speed 25 mph    
Visibility 9 miles    
Events      
T = Trace of Precipitation, MM = Missing Value Source: NWS Daily Summary

Daily Weather History Graph

Daily Weather History Graph

Search for Another Location

Airport or City:

Trip Planner

Search our weather history database for the weather conditions in past years. The results will help you decide how hot, cold, wet, or windy it might be!

Date:

Astronomy

Jan. 24, 2012 Rise Set
Actual Time 7:20 AM CST 4:58 PM CST
Civil Twilight 6:49 AM CST 5:29 PM CST
Nautical Twilight 6:15 AM CST 6:03 PM CST
Astronomical Twilight 5:41 AM CST 6:37 PM CST
Moon 7:46 AM CST (1/24) 6:54 PM CST (1/24)
Length of Visible Light 10h 39m
Length of Day
9h 37m
New Moon, 2% of the Moon is Illuminated
Jan 24
New Moon
Jan 30
First Quarter
Feb 7
Full
Feb 14
Last Quarter
Feb 21
New

Hourly Weather History & Observations

Time (CST) Temp. Windchill Dew Point Humidity Pressure Visibility Wind Dir Wind Speed Gust Speed Precip Events Conditions
12:53 AM 26.1 °F 19.4 °F 19.9 °F 78% 29.90 in 8.0 mi West 5.8 mph - N/A   Overcast
1:53 AM 25.0 °F 17.1 °F 19.0 °F 78% 29.94 in 9.0 mi WNW 6.9 mph - N/A   Overcast
2:53 AM 25.0 °F 17.1 °F 19.0 °F 78% 29.96 in 8.0 mi West 6.9 mph - N/A   Overcast
3:53 AM 24.8 °F 19.1 °F 19.4 °F 80% 29.95 in 8.0 mi Variable 4.6 mph - N/A   Overcast
4:53 AM 24.8 °F 14.6 °F 17.6 °F 74% 29.99 in 9.0 mi West 10.4 mph 16.1 mph N/A   Overcast
5:53 AM 24.1 °F 16.0 °F 18.0 °F 77% 30.07 in 9.0 mi Variable 6.9 mph - N/A   Overcast
6:53 AM 24.1 °F 16.0 °F 18.0 °F 77% 30.10 in 9.0 mi West 6.9 mph - N/A   Overcast
7:53 AM 24.1 °F 17.0 °F 18.0 °F 77% 30.13 in 7.0 mi WNW 5.8 mph - N/A   Overcast
8:53 AM 24.1 °F 16.0 °F 18.0 °F 77% 30.17 in 8.0 mi WNW 6.9 mph - N/A   Mostly Cloudy
9:53 AM 25.0 °F 14.8 °F 18.0 °F 75% 30.19 in 9.0 mi NW 10.4 mph - N/A   Mostly Cloudy
10:23 AM 26.6 °F 16.2 °F 17.6 °F 69% 30.17 in 9.0 mi NW 11.5 mph - N/A   Scattered Clouds
10:53 AM 27.0 °F 19.5 °F 19.0 °F 72% 30.21 in 9.0 mi WNW 6.9 mph - N/A   Scattered Clouds
11:53 AM 28.0 °F 19.3 °F 19.0 °F 69% 30.22 in 9.0 mi West 9.2 mph - N/A   Partly Cloudy
12:53 PM 30.0 °F 22.4 °F 19.9 °F 66% 30.24 in 10.0 mi WNW 8.1 mph - N/A   Partly Cloudy
1:53 PM 30.9 °F 25.2 °F 19.9 °F 64% 30.23 in 10.0 mi NW 5.8 mph - N/A   Clear
2:53 PM 32.0 °F 27.5 °F 21.0 °F 64% 30.25 in 10.0 mi NW 4.6 mph - N/A   Clear
3:53 PM 30.9 °F 27.5 °F 19.9 °F 64% 30.28 in 10.0 mi West 3.5 mph - N/A   Clear
4:53 PM 28.0 °F 24.2 °F 19.9 °F 72% 30.30 in 10.0 mi WNW 3.5 mph - N/A   Clear
5:53 PM 26.1 °F - 19.9 °F 78% 30.32 in 10.0 mi Calm Calm - N/A   Clear
6:53 PM 24.1 °F - 18.0 °F 77% 30.32 in 9.0 mi Calm Calm - N/A   Clear
7:53 PM 21.0 °F - 18.0 °F 88% 30.35 in 9.0 mi Calm Calm - N/A   Clear
8:53 PM 23.0 °F - 19.0 °F 85% 30.35 in 7.0 mi Calm Calm - N/A   Clear
9:53 PM 19.9 °F - 16.0 °F 85% 30.32 in 7.0 mi Calm Calm - N/A   Clear
10:53 PM 19.9 °F - 17.1 °F 89% 30.33 in 7.0 mi Calm Calm - N/A   Clear
11:53 PM 19.9 °F - 17.1 °F 89% 30.33 in 6.0 mi Calm Calm - N/A   Partly Cloudy